Location: Cambroso
(45.2833°N, 12.0850°E)
Time: 19:16:17
(UTC+00:00)

Okean-O - Pass Details

Date: 21 January 2021
Orbit: 638 x 641 km, 98.2° (Epoch: 03 March)

Event Time Altitude Azimuth Distance (km) Brightness Sun altitude
Rises 16:53:21 0° 134° (SE) 2,937 5.8 -8.9°
Reaches altitude 10° 16:55:49 10° 122° (ESE) 2,032 4.8 -9.3°
Maximum altitude 16:59:29 26° 66° (ENE) 1,265 3.6 -9.9°
Drops below altitude 10° 17:03:10 10° 10° (N) 2,045 5.0 -10.5°
Sets 17:05:39 0° 358° (N) 2,959 5.9 -10.9°
